This demonstration page uses our WeatherBlox Daily Observations layout. Learn more.

Left ArrowRight Arrow

Hourly Observations for February 3, 2020

Temp ( °F °C ) Dew Point ( °F °C ) Humidity (%) Winds ( mph kmh ) Pressure ( in mb ) Visibility ( mi km ) Precip ( " mm )
12:59 am 00:59 Clear 57 13.9 34 1.1 42 42 WSW 15 24 29.71 1006 10 16 0.00 0.00
1:59 am 01:59 Clear 55 12.8 35 1.7 47 47 WSW 12 19 29.74 1007 10 16 0.00 0.00
2:59 am 02:59 Clear 54 12.2 35 1.7 49 49 WSW 9 15 29.78 1009 10 16 0.00 0.00
3:59 am 03:59 Clear 53 11.7 35 1.7 51 51 WSW 9 15 29.81 1010 10 16 0.00 0.00
4:59 am 04:59 Mostly Clear 52 11.1 34 1.1 50 50 SW 7 11 29.84 1011 10 16 0.00 0.00
5:59 am 05:59 Partly Cloudy 52 11.1 35 1.7 53 53 SW 10 17 29.87 1011 10 16 0.00 0.00
6:59 am 06:59 Mostly Cloudy 52 11.1 35 1.7 53 53 WSW 12 19 29.92 1013 10 16 0.00 0.00
7:59 am 07:59 Mostly Cloudy 52 11.1 35 1.7 53 53 WSW 8 13 29.95 1014 10 16 0.00 0.00
8:59 am 08:59 Cloudy 54 12.2 37 2.8 53 53 WSW 6 9 29.97 1015 10 16 0.00 0.00
9:59 am 09:59 Mostly Cloudy 58 14.4 37 2.8 46 46 WSW 10 17 29.98 1015 10 16 0.00 0.00
10:59 am 10:59 Mostly Cloudy 62 16.7 38 3.3 41 41 WSW 12 19 30.01 1016 10 16 0.00 0.00
11:59 am 11:59 Mostly Cloudy 66 18.9 39 3.9 37 37 WSW 10 17 29.98 1015 10 16 0.00 0.00
12:59 pm 12:59 Mostly Cloudy 69 20.6 40 4.4 35 35 WSW 12 19 29.97 1015 10 16 0.00 0.00
1:59 pm 13:59 Partly Cloudy 72 22.2 39 3.9 30 30 WSW 8 13 29.94 1014 10 16 0.00 0.00
2:59 pm 14:59 Mostly Cloudy 72 22.2 40 4.4 31 31 SSW 7 11 29.95 1014 10 16 0.00 0.00
3:59 pm 15:59 Mostly Cloudy 71 21.7 39 3.9 31 31 SSW 7 11 29.94 1014 10 16 0.00 0.00
4:59 pm 16:59 Mostly Cloudy 67 19.4 39 3.9 36 36 SSW 6 9 29.95 1014 10 16 0.00 0.00
5:59 pm 17:59 Mostly Cloudy 64 17.8 39 3.9 40 40 SSW 6 9 29.96 1015 10 16 0.00 0.00
6:59 pm 18:59 Mostly Cloudy 60 15.6 40 4.4 47 47 SSW 5 7 29.96 1015 10 16 0.00 0.00
7:59 pm 19:59 Mostly Cloudy 62 16.7 40 4.4 44 44 SSW 5 7 29.96 1015 10 16 0.00 0.00
8:59 pm 20:59 Mostly Cloudy 60 15.6 41 5 50 50 SW 6 9 29.97 1015 10 16 0.00 0.00
9:59 pm 21:59 Mostly Cloudy 60 15.6 42 5.6 52 52 SSW 9 15 29.95 1014 10 16 0.00 0.00
10:59 pm 22:59 Mostly Cloudy 61 16.1 44 6.7 54 54 SSW 13 20 29.94 1014 10 16 0.00 0.00
11:59 pm 23:59 Mostly Cloudy 63 17.2 43 6.1 48 48 SW 10 17 29.93 1013 10 16 0.00 0.00

Powered by AerisWeather